Regional Weather Roundup
Issued by NWS Charleston, SC

Current Version | Previous Version | Graphics & Text | Print | Product List | Glossary On
Versions: 1 2 3 4 5 6 7 8 9 10 11 12 13 14 15 16 17 18 19 20 21 22 23 24 25 26 27 28 29 30 31 32 33 34 35 36 37 38 39 40 41 42 43 44 45 46 47 48 49 50
000
ASUS42 KCHS 011425
RWRCHS

REGIONAL WEATHER ROUNDUP
NATIONAL WEATHER SERVICE CHARLESTON SC
1000 AM EDT FRI AUG 01 2014

NOTE: "FAIR" INDICATES FEW OR NO CLOUDS BELOW 12,000 FEET WITH NO
SIGNIFICANT WEATHER AND/OR OBSTRUCTIONS TO VISIBILITY.

NOT ALL STATIONS ARE QUALITY CONTROLLED BY THE NATIONAL
WEATHER SERVICE. USE DATA WITH CAUTION...ESPECIALLY
DEWPOINT OBSERVATIONS.

SCZ027-030-031-034>040-042>050-011500-
...SOUTH CAROLINA...

CITY           SKY/WX    TMP DP  RH WIND       PRES   REMARKS
N CHARLESTON   MOSUNNY   85  76  74 E6        30.02R HX  94
WATERFRONT PRK   N/A     82 N/A N/A NE7         N/A
FORT JOHNSON   NOT AVBL
MOUNT PLEASANT FAIR      81  77  89 CALM      30.01F
JOHNS ISLAND   PTSUNNY   82  70  65 CALM      30.02S
PINOPOLIS        N/A     84  75  74 SE2       29.94R HX  92
MONCKS CORNER  NOT AVBL
SUMMERVILLE    FAIR      82  77  83 E3        30.03S HX  91
BEAUFORT MCAS  PTSUNNY   80  75  84 NE8       30.01R
BEAUFORT ARPT  FAIR      79  77  94 N8        30.02R
HILTON HEAD IS MOSUNNY   81  75  83 N9        30.02R
GEORGETOWN     NOT AVBL
WALTERBORO     MOSUNNY   82  81  94 E3        30.03S HX  95
ORANGEBURG     CLOUDY    76  71  85 NW6       30.05R
BARNWELL       CLOUDY    75  72  88 N8        30.05S
AIKEN          CLOUDY    72  72 100 N8        30.09F
MANNING        FAIR      81  81 100 CALM      30.04R HX  91
KINGSTREE      NOT AVBL
COLUMBIA       CLOUDY    74  67  78 VRB5      30.06R
SUMTER         HVY RAIN  75  73  94 N14G20    30.04R VSB 1/2
FLORENCE       CLOUDY    79  72  79 E7        30.04R
MYRTLE BEACH   PTSUNNY   77  73  88 S17       30.03F
N MYRTLE BEACH LGT RAIN  75  73  93 CALM      30.04S FOG

$$

GAZ063-065-086>088-099>101-113>116-118-119-134-136>141-150-011500-
...GEORGIA...

CITY           SKY/WX    TMP DP  RH WIND       PRES   REMARKS
SAVANNAH ARPT  CLOUDY    77  74  90 N6        30.01  FOG
HUNTER AAF     MOSUNNY   82  77  83 N8        29.99R HX  91
FORT STEWART   CLOUDY    79  73  83 NE6       30.00S FOG
STATESBORO     NOT AVBL
SYLVANIA       CLOUDY    76  75  99 N6        30.04S FOG
CLAXTON        CLOUDY    79  79 100 NE3       30.02S FOG
THOMSON        CLOUDY    71  71 100 CALM      30.11F
AUGUSTA-BUSH   CLOUDY    73  67  81 N9        30.05S
AUGUSTA-DANIEL CLOUDY    74  67  78 N6        30.07S
SWAINSBORO     CLOUDY    77  77 100 N5        30.05R FOG
VIDALIA          N/A     77  73  88 NE7       30.03S
ALMA           PTSUNNY   85  75  72 VRB3      30.00R HX  93
WAYCROSS       PTSUNNY   87  79  76 E5        30.00S HX 101
JESUP          FAIR      86  77  74 NE5       30.00S HX  97
BRUNSWICK      PTSUNNY   86  75  70 W3        30.00R HX  95
SAINT SIMONS   PTSUNNY   84  74  71 W3        29.99R HX  91

$$

SCZ027-028-034-036>038-045-046-048>050-GAZ119-141-011500-
...LAKE AND SUPPLEMENTAL COASTAL OBSERVATIONS...

STATION/POSITION TIME  TEMP    WIND        PRES    WAVE   SWELL
                       AIR SEA DIR/SP/G            HT/PER HT/PER/DIR
                 (UTC) (F)     (DEG/KT/KT) (MB)    (FT/S) (FT/S/D)
UPR LAKE MARION  NOT AVBL
WINYAH BAY       1400   79     120/ 10     1017.0R
LAKE MURRAY      1400   68     360/  2/  6 1017.6S
ACE BASIN NERRS  1400   78      20/  3     1017.0R
FORT PULASKI     1400   82     360/  3/  5 1016.3R
SAPELO ISLAND    1400   84      50/  2     1016.0S

$$

ANZ835-935-AMZ111-154-330-350-352-354-374-450-454-472-011500-
...C-MAN AND BUOY OBSERVATIONS...

STATION/POSITION TIME  TEMP    WIND        PRES    WAVE   SWELL
                       AIR SEA DIR/SP/G            HT/PER HT/PER/DIR
                 (UTC) (F)     (DEG/KT/KT) (MB)    (FT/S) (FT/S/D)
FOLLY BEACH CMAN 1400   79     130/  7/  8 1016.8R
BUOY 41004       1400   76 83  150/ 17/ 19 1015.3F   4/ 5   2/14
BUOY 41008       1400   80 85   CALM  /  2 1015.2R   3/ 5   3/140/ 5
5E ST. MARYS GA  1400      85                N/A     3/ 5
FRYING PAN BUOY  NOT AVBL
BUOY 41025       1400          VRB 14/ 16  1019.1R   4/ 5   2/120/ 7
CAPE LOOKOUT NC  1400   80     130/ 11/ 12 1018.3S
BUOY 41002       1324   81 81  160/ 14/ 16 1019.3R   4/ 7   2/110/ 7
BUOY 41010       1400   83 84  140/ 12/ 12 1016.4F   3/ 4   2/ 90/ 7
BUOY 41012       NOT AVBL
ST AUGUSTINE FL  1400   84     230/  5/  7 1016.2R
CAPERS NEARSHORE 1300   79     100/  6/  8   N/A
FRIPP NEARSHORE  NOT AVBL


$$


USA.gov is the U.S. government's official web portal to all federal, state and local government web resources and services.